Time,TemperatureF,DewpointF,PressureIn,WindDirection,WindDirectionDegrees,WindSpeedMPH,WindSpeedGustMPH,Humidity,HourlyPrecipIn,Conditions,Clouds,dailyrainin,SoftwareType,DateUTC
2013-08-21 00:02:00,65.8,62.1,30.19,East,95,1.0,2.0,88,0.00,,,0.00,Wunderground v.1.15,2013-08-21 04:02:00,
2013-08-21 00:04:00,65.8,62.1,30.19,East,95,1.0,2.0,88,0.00,,,0.00,Wunderground v.1.15,2013-08-21 04:04:00,
2013-08-21 00:06:00,65.7,62.0,30.19,East,95,1.0,2.0,88,0.00,,,0.00,Wunderground v.1.15,2013-08-21 04:06:00,
2013-08-21 00:08:00,65.7,62.0,30.19,East,95,1.0,2.0,88,0.00,,,0.00,Wunderground v.1.15,2013-08-21 04:08:00,
2013-08-21 00:12:00,65.8,62.1,30.19,East,95,1.0,1.0,88,0.00,,,0.00,Wunderground v.1.15,2013-08-21 04:12:00,
2013-08-21 00:18:00,65.7,62.0,30.19,East,95,1.0,1.0,88,0.00,,,0.00,Wunderground v.1.15,2013-08-21 04:18:00,
2013-08-21 00:24:00,65.7,62.0,30.19,East,95,1.0,1.0,88,0.00,,,0.00,Wunderground v.1.15,2013-08-21 04:24:00,
2013-08-21 00:30:00,65.6,61.9,30.19,East,95,1.0,1.0,88,0.00,,,0.00,Wunderground v.1.15,2013-08-21 04:30:00,
2013-08-21 00:36:00,65.6,62.3,30.19,East,95,1.0,1.0,89,0.00,,,0.00,Wunderground v.1.15,2013-08-21 04:36:00,
2013-08-21 00:42:00,65.7,62.4,30.19,East,95,1.0,1.0,89,0.00,,,0.00,Wunderground v.1.15,2013-08-21 04:42:00,
2013-08-21 00:48:00,65.6,62.3,30.19,East,95,1.0,1.0,89,0.00,,,0.00,Wunderground v.1.15,2013-08-21 04:48:00,
2013-08-21 00:54:00,65.8,62.5,30.19,East,94,1.0,1.0,89,0.00,,,0.00,Wunderground v.1.15,2013-08-21 04:54:00,
2013-08-21 01:00:00,65.6,62.3,30.19,East,95,1.0,1.0,89,0.00,,,0.00,Wunderground v.1.15,2013-08-21 05:00:00,
2013-08-21 01:06:00,65.6,62.3,30.19,East,95,1.0,1.0,89,0.00,,,0.00,Wunderground v.1.15,2013-08-21 05:06:00,
2013-08-21 01:12:00,65.4,62.4,30.19,East,95,1.0,1.0,90,0.00,,,0.00,Wunderground v.1.15,2013-08-21 05:12:00,
2013-08-21 01:18:00,65.3,62.3,30.19,East,95,1.0,1.0,90,0.00,,,0.00,Wunderground v.1.15,2013-08-21 05:18:00,
2013-08-21 01:24:00,65.3,62.3,30.19,East,95,1.0,1.0,90,0.00,,,0.00,Wunderground v.1.15,2013-08-21 05:24:00,
2013-08-21 01:30:00,65.1,62.1,30.19,East,95,0.0,0.0,90,0.00,,,0.00,Wunderground v.1.15,2013-08-21 05:30:00,
2013-08-21 01:36:00,65.1,62.1,30.19,East,95,1.0,1.0,90,0.00,,,0.00,Wunderground v.1.15,2013-08-21 05:36:00,
2013-08-21 01:42:00,65.1,62.1,30.19,East,95,1.0,1.0,90,0.00,,,0.00,Wunderground v.1.15,2013-08-21 05:42:00,
2013-08-21 01:48:00,65.0,62.0,30.19,East,94,1.0,1.0,90,0.00,,,0.00,Wunderground v.1.15,2013-08-21 05:48:00,
2013-08-21 01:54:00,64.7,62.0,30.19,East,94,0.0,0.0,91,0.00,,,0.00,Wunderground v.1.15,2013-08-21 05:54:00,
2013-08-21 02:00:00,64.7,62.0,30.19,East,95,0.0,0.0,91,0.00,,,0.00,Wunderground v.1.15,2013-08-21 06:00:00,
2013-08-21 02:06:00,64.6,61.9,30.19,East,95,1.0,1.0,91,0.00,,,0.00,Wunderground v.1.15,2013-08-21 06:06:00,
2013-08-21 02:12:00,64.6,61.9,30.19,East,95,1.0,1.0,91,0.00,,,0.00,Wunderground v.1.15,2013-08-21 06:12:00,
2013-08-21 02:18:00,64.5,61.8,30.19,East,98,1.0,1.0,91,0.00,,,0.00,Wunderground v.1.15,2013-08-21 06:18:00,
2013-08-21 02:24:00,64.5,61.8,30.19,East,98,0.0,1.0,91,0.00,,,0.00,Wunderground v.1.15,2013-08-21 06:24:00,
2013-08-21 02:30:00,64.4,62.0,30.19,East,98,1.0,1.0,92,0.00,,,0.00,Wunderground v.1.15,2013-08-21 06:30:00,
2013-08-21 02:36:00,64.7,62.0,30.19,ESE,103,1.0,1.0,91,0.00,,,0.00,Wunderground v.1.15,2013-08-21 06:36:00,
2013-08-21 02:42:00,64.9,62.2,30.19,ESE,103,1.0,1.0,91,0.00,,,0.00,Wunderground v.1.15,2013-08-21 06:42:00,
2013-08-21 02:48:00,64.7,62.0,30.19,ESE,103,1.0,1.0,91,0.00,,,0.00,Wunderground v.1.15,2013-08-21 06:48:00,
2013-08-21 02:54:00,64.5,61.8,30.19,ESE,103,1.0,1.0,91,0.00,,,0.00,Wunderground v.1.15,2013-08-21 06:54:00,
2013-08-21 03:00:00,64.3,61.9,30.19,ESE,103,1.0,1.0,92,0.00,,,0.00,Wunderground v.1.15,2013-08-21 07:00:00,
2013-08-21 03:06:00,64.5,62.1,30.19,ESE,103,1.0,1.0,92,0.00,,,0.00,Wunderground v.1.15,2013-08-21 07:06:00,
2013-08-21 03:12:00,64.5,62.1,30.19,ESE,104,1.0,1.0,92,0.00,,,0.00,Wunderground v.1.15,2013-08-21 07:12:00,
2013-08-21 03:18:00,64.5,62.1,30.19,ESE,103,1.0,1.0,92,0.00,,,0.00,Wunderground v.1.15,2013-08-21 07:18:00,
2013-08-21 03:24:00,64.5,62.1,30.19,ESE,104,1.0,1.0,92,0.00,,,0.00,Wunderground v.1.15,2013-08-21 07:24:00,
2013-08-21 03:30:00,64.3,61.9,30.19,ESE,103,1.0,1.0,92,0.00,,,0.00,Wunderground v.1.15,2013-08-21 07:30:00,
2013-08-21 03:36:00,64.1,61.7,30.19,ESE,103,1.0,1.0,92,0.00,,,0.00,Wunderground v.1.15,2013-08-21 07:36:00,
2013-08-21 03:42:00,64.0,61.6,30.19,ESE,104,1.0,1.0,92,0.00,,,0.00,Wunderground v.1.15,2013-08-21 07:42:00,
2013-08-21 03:48:00,63.9,61.5,30.19,ESE,103,1.0,1.0,92,0.00,,,0.00,Wunderground v.1.15,2013-08-21 07:48:00,
2013-08-21 03:54:00,63.9,61.5,30.19,ESE,103,1.0,1.0,92,0.00,,,0.00,Wunderground v.1.15,2013-08-21 07:54:00,
2013-08-21 04:00:00,63.7,61.3,30.19,ESE,103,1.0,1.0,92,0.00,,,0.00,Wunderground v.1.15,2013-08-21 08:00:00,
2013-08-21 04:06:00,63.5,61.1,30.19,ESE,103,1.0,1.0,92,0.00,,,0.00,Wunderground v.1.15,2013-08-21 08:06:00,
2013-08-21 04:12:00,63.4,61.3,30.19,ESE,103,1.0,1.0,93,0.00,,,0.00,Wunderground v.1.15,2013-08-21 08:12:00,
2013-08-21 04:18:00,63.2,61.1,30.19,ESE,103,1.0,1.0,93,0.00,,,0.00,Wunderground v.1.15,2013-08-21 08:18:00,
2013-08-21 04:24:00,63.1,61.0,30.19,ESE,103,1.0,1.0,93,0.00,,,0.00,Wunderground v.1.15,2013-08-21 08:24:00,
2013-08-21 04:30:00,63.0,60.9,30.19,ESE,103,1.0,1.0,93,0.00,,,0.00,Wunderground v.1.15,2013-08-21 08:30:00,
2013-08-21 04:36:00,62.8,60.7,30.19,ESE,103,1.0,1.0,93,0.00,,,0.00,Wunderground v.1.15,2013-08-21 08:36:00,
2013-08-21 04:42:00,62.6,60.8,30.20,ESE,103,1.0,1.0,94,0.00,,,0.00,Wunderground v.1.15,2013-08-21 08:42:00,
2013-08-21 04:48:00,62.6,60.8,30.20,ESE,103,0.0,1.0,94,0.00,,,0.00,Wunderground v.1.15,2013-08-21 08:48:00,
2013-08-21 04:54:00,62.5,60.7,30.20,ESE,103,0.0,1.0,94,0.00,,,0.00,Wunderground v.1.15,2013-08-21 08:54:00,
2013-08-21 05:00:00,62.4,60.7,30.20,ESE,103,0.0,0.0,94,0.00,,,0.00,Wunderground v.1.15,2013-08-21 09:00:00,
2013-08-21 05:06:00,62.4,60.7,30.21,ESE,103,0.0,1.0,94,0.00,,,0.00,Wunderground v.1.15,2013-08-21 09:06:00,
2013-08-21 05:12:00,62.3,60.6,30.21,ESE,104,1.0,1.0,94,0.00,,,0.00,Wunderground v.1.15,2013-08-21 09:12:00,
2013-08-21 05:18:00,62.2,60.5,30.21,ESE,103,0.0,1.0,94,0.00,,,0.00,Wunderground v.1.15,2013-08-21 09:18:00,
2013-08-21 05:24:00,62.0,60.3,30.21,ESE,103,0.0,0.0,94,0.00,,,0.00,Wunderground v.1.15,2013-08-21 09:24:00,
2013-08-21 05:30:00,61.8,60.4,30.21,ESE,104,0.0,0.0,95,0.00,,,0.00,Wunderground v.1.15,2013-08-21 09:30:00,
2013-08-21 05:36:00,61.7,60.3,30.21,ESE,103,0.0,0.0,95,0.00,,,0.00,Wunderground v.1.15,2013-08-21 09:36:00,
2013-08-21 05:42:00,61.7,60.3,30.21,ESE,103,0.0,0.0,95,0.00,,,0.00,Wunderground v.1.15,2013-08-21 09:42:00,
2013-08-21 05:48:00,61.5,60.1,30.21,ESE,104,0.0,0.0,95,0.00,,,0.00,Wunderground v.1.15,2013-08-21 09:48:00,
2013-08-21 05:54:00,61.5,60.3,30.21,ESE,103,0.0,1.0,96,0.00,,,0.00,Wunderground v.1.15,2013-08-21 09:54:00,
2013-08-21 06:00:00,61.7,60.5,30.22,ESE,104,0.0,0.0,96,0.00,,,0.00,Wunderground v.1.15,2013-08-21 10:00:00,
2013-08-21 06:06:00,61.6,60.4,30.22,ESE,104,0.0,1.0,96,0.00,,,0.00,Wunderground v.1.15,2013-08-21 10:06:00,
2013-08-21 06:12:00,61.6,60.4,30.22,ESE,103,1.0,1.0,96,0.00,,,0.00,Wunderground v.1.15,2013-08-21 10:12:00,
2013-08-21 06:18:00,61.5,60.3,30.22,ESE,103,0.0,1.0,96,0.00,,,0.00,Wunderground v.1.15,2013-08-21 10:18:00,
2013-08-21 06:24:00,61.5,60.3,30.22,ESE,103,0.0,1.0,96,0.00,,,0.00,Wunderground v.1.15,2013-08-21 10:24:00,
2013-08-21 06:30:00,61.7,60.5,30.22,ESE,103,1.0,1.0,96,0.00,,,0.00,Wunderground v.1.15,2013-08-21 10:30:00,
2013-08-21 06:36:00,61.7,60.5,30.22,ESE,103,1.0,1.0,96,0.00,,,0.00,Wunderground v.1.15,2013-08-21 10:36:00,
2013-08-21 06:42:00,61.7,60.5,30.22,ESE,104,1.0,1.0,96,0.00,,,0.00,Wunderground v.1.15,2013-08-21 10:42:00,
2013-08-21 06:48:00,61.8,60.6,30.23,ESE,103,0.0,1.0,96,0.00,,,0.00,Wunderground v.1.15,2013-08-21 10:48:00,
2013-08-21 06:54:00,61.8,60.6,30.23,ESE,103,0.0,1.0,96,0.00,,,0.00,Wunderground v.1.15,2013-08-21 10:54:00,
2013-08-21 07:00:00,61.9,60.7,30.23,ESE,104,1.0,1.0,96,0.00,,,0.00,Wunderground v.1.15,2013-08-21 11:00:00,
2013-08-21 07:06:00,62.0,60.8,30.23,ESE,104,0.0,1.0,96,0.00,,,0.00,Wunderground v.1.15,2013-08-21 11:06:00,
2013-08-21 07:12:00,62.1,60.9,30.23,ESE,104,0.0,1.0,96,0.00,,,0.00,Wunderground v.1.15,2013-08-21 11:12:00,
2013-08-21 07:18:00,62.4,61.2,30.23,ESE,103,0.0,1.0,96,0.00,,,0.00,Wunderground v.1.15,2013-08-21 11:18:00,
2013-08-21 07:24:00,62.6,61.4,30.23,ESE,104,0.0,0.0,96,0.00,,,0.00,Wunderground v.1.15,2013-08-21 11:24:00,
2013-08-21 07:30:00,62.8,61.6,30.23,ESE,104,0.0,0.0,96,0.00,,,0.00,Wunderground v.1.15,2013-08-21 11:30:00,
2013-08-21 07:36:00,63.1,61.9,30.23,ESE,104,0.0,0.0,96,0.00,,,0.00,Wunderground v.1.15,2013-08-21 11:36:00,
2013-08-21 07:42:00,63.3,62.1,30.23,ESE,103,0.0,0.0,96,0.00,,,0.00,Wunderground v.1.15,2013-08-21 11:42:00,
2013-08-21 07:48:00,63.9,62.7,30.23,ESE,104,0.0,0.0,96,0.00,,,0.00,Wunderground v.1.15,2013-08-21 11:48:00,
2013-08-21 07:54:00,65.1,63.9,30.23,ESE,104,0.0,0.0,96,0.00,,,0.00,Wunderground v.1.15,2013-08-21 11:54:00,
2013-08-21 08:00:00,66.3,64.2,30.24,ESE,103,0.0,0.0,93,0.00,,,0.00,Wunderground v.1.15,2013-08-21 12:00:00,
2013-08-21 08:06:00,67.0,63.6,30.24,ESE,104,0.0,1.0,89,0.00,,,0.00,Wunderground v.1.15,2013-08-21 12:06:00,
2013-08-21 08:12:00,68.0,64.3,30.24,ESE,103,0.0,0.0,88,0.00,,,0.00,Wunderground v.1.15,2013-08-21 12:12:00,
2013-08-21 08:18:00,68.8,64.4,30.23,ESE,103,0.0,0.0,86,0.00,,,0.00,Wunderground v.1.15,2013-08-21 12:18:00,
2013-08-21 08:24:00,69.7,65.7,30.23,ESE,103,0.0,0.0,87,0.00,,,0.00,Wunderground v.1.15,2013-08-21 12:24:00,
2013-08-21 08:30:00,71.1,66.0,30.23,ESE,103,0.0,0.0,84,0.00,,,0.00,Wunderground v.1.15,2013-08-21 12:30:00,
2013-08-21 08:36:00,72.3,66.1,30.23,ESE,103,0.0,0.0,81,0.00,,,0.00,Wunderground v.1.15,2013-08-21 12:36:00,
2013-08-21 08:42:00,72.9,66.0,30.23,ESE,103,0.0,0.0,79,0.00,,,0.00,Wunderground v.1.15,2013-08-21 12:42:00,
2013-08-21 08:48:00,71.4,65.3,30.23,ESE,103,0.0,0.0,81,0.00,,,0.00,Wunderground v.1.15,2013-08-21 12:48:00,
2013-08-21 08:54:00,71.2,65.8,30.23,ESE,103,0.0,0.0,83,0.00,,,0.00,Wunderground v.1.15,2013-08-21 12:54:00,
2013-08-21 09:00:00,72.2,66.0,30.23,ESE,103,0.0,0.0,81,0.00,,,0.00,Wunderground v.1.15,2013-08-21 13:00:00,
2013-08-21 09:06:00,73.0,66.5,30.23,ESE,103,0.0,1.0,80,0.00,,,0.00,Wunderground v.1.15,2013-08-21 13:06:00,
2013-08-21 09:12:00,73.4,66.5,30.23,ESE,103,0.0,0.0,79,0.00,,,0.00,Wunderground v.1.15,2013-08-21 13:12:00,
2013-08-21 09:18:00,73.3,66.4,30.23,NW,323,0.0,0.0,79,0.00,,,0.00,Wunderground v.1.15,2013-08-21 13:18:00,
2013-08-21 09:24:00,73.3,66.4,30.23,NW,326,0.0,0.0,79,0.00,,,0.00,Wunderground v.1.15,2013-08-21 13:24:00,
2013-08-21 09:30:00,73.3,66.8,30.24,NW,326,0.0,0.0,80,0.00,,,0.00,Wunderground v.1.15,2013-08-21 13:30:00,
2013-08-21 09:36:00,73.6,66.3,30.24,NW,319,0.0,2.0,78,0.00,,,0.00,Wunderground v.1.15,2013-08-21 13:36:00,
2013-08-21 09:42:00,73.4,65.7,30.24,NW,310,0.0,0.0,77,0.00,,,0.00,Wunderground v.1.15,2013-08-21 13:42:00,
2013-08-21 09:48:00,73.7,67.1,30.24,NW,310,0.0,0.0,80,0.00,,,0.00,Wunderground v.1.15,2013-08-21 13:48:00,
2013-08-21 09:54:00,74.0,66.7,30.23,NNW,329,0.0,1.0,78,0.00,,,0.00,Wunderground v.1.15,2013-08-21 13:54:00,
2013-08-21 10:00:00,74.2,66.5,30.24,NNW,343,0.0,0.0,77,0.00,,,0.00,Wunderground v.1.15,2013-08-21 14:00:00,
2013-08-21 10:06:00,74.5,66.8,30.24,NNW,336,0.0,1.0,77,0.00,,,0.00,Wunderground v.1.15,2013-08-21 14:06:00,
2013-08-21 10:12:00,74.9,66.4,30.24,NNE,18,0.0,2.0,75,0.00,,,0.00,Wunderground v.1.15,2013-08-21 14:12:00,
2013-08-21 10:18:00,75.1,66.6,30.24,NW,310,0.0,2.0,75,0.00,,,0.00,Wunderground v.1.15,2013-08-21 14:18:00,
2013-08-21 10:24:00,75.5,67.0,30.23,NNE,31,0.0,2.0,75,0.00,,,0.00,Wunderground v.1.15,2013-08-21 14:24:00,
2013-08-21 10:30:00,75.6,67.5,30.24,NNE,23,0.0,0.0,76,0.00,,,0.00,Wunderground v.1.15,2013-08-21 14:30:00,
2013-08-21 10:36:00,75.9,67.8,30.23,NNE,31,0.0,1.0,76,0.00,,,0.00,Wunderground v.1.15,2013-08-21 14:36:00,
2013-08-21 10:42:00,76.1,67.6,30.24,North,4,1.0,1.0,75,0.00,,,0.00,Wunderground v.1.15,2013-08-21 14:42:00,
2013-08-21 10:48:00,76.5,67.6,30.23,NNE,33,1.0,1.0,74,0.00,,,0.00,Wunderground v.1.15,2013-08-21 14:48:00,
2013-08-21 10:54:00,77.3,67.6,30.23,NE,53,1.0,1.0,72,0.00,,,0.00,Wunderground v.1.15,2013-08-21 14:54:00,
2013-08-21 11:00:00,77.0,67.7,30.23,NE,39,1.0,1.0,73,0.00,,,0.00,Wunderground v.1.15,2013-08-21 15:00:00,
2013-08-21 11:06:00,77.6,67.9,30.23,NNE,27,1.0,2.0,72,0.00,,,0.00,Wunderground v.1.15,2013-08-21 15:06:00,
2013-08-21 11:12:00,78.1,68.7,30.24,NNE,18,1.0,1.0,73,0.00,,,0.00,Wunderground v.1.15,2013-08-21 15:12:00,
2013-08-21 11:18:00,78.6,68.0,30.23,North,3,1.0,1.0,70,0.00,,,0.00,Wunderground v.1.15,2013-08-21 15:18:00,
2013-08-21 11:24:00,78.7,67.7,30.24,NNE,30,1.0,4.0,69,0.00,,,0.00,Wunderground v.1.15,2013-08-21 15:24:00,
2013-08-21 11:30:00,78.6,67.2,30.24,NNE,30,1.0,1.0,68,0.00,,,0.00,Wunderground v.1.15,2013-08-21 15:30:00,
2013-08-21 11:36:00,79.2,69.0,30.24,NE,44,1.0,2.0,71,0.00,,,0.00,Wunderground v.1.15,2013-08-21 15:36:00,
2013-08-21 11:42:00,79.9,68.4,30.24,East,89,1.0,1.0,68,0.00,,,0.00,Wunderground v.1.15,2013-08-21 15:42:00,
2013-08-21 11:48:00,80.8,68.4,30.23,East,89,0.0,1.0,66,0.00,,,0.00,Wunderground v.1.15,2013-08-21 15:48:00,
2013-08-21 11:54:00,81.4,68.5,30.23,East,101,0.0,1.0,65,0.00,,,0.00,Wunderground v.1.15,2013-08-21 15:54:00,
2013-08-21 12:00:00,81.4,67.1,30.23,North,360,0.0,1.0,62,0.00,,,0.00,Wunderground v.1.15,2013-08-21 16:00:00,
2013-08-21 12:06:00,81.6,66.4,30.22,NNE,14,1.0,4.0,60,0.00,,,0.00,Wunderground v.1.15,2013-08-21 16:06:00,
2013-08-21 12:12:00,81.7,69.2,30.22,WNW,290,1.0,2.0,66,0.00,,,0.00,Wunderground v.1.15,2013-08-21 16:12:00,
2013-08-21 12:18:00,82.2,66.9,30.22,West,276,0.0,2.0,60,0.00,,,0.00,Wunderground v.1.15,2013-08-21 16:18:00,
2013-08-21 12:24:00,83.0,65.7,30.22,North,4,0.0,0.0,56,0.00,,,0.00,Wunderground v.1.15,2013-08-21 16:24:00,
2013-08-21 12:30:00,83.4,64.5,30.21,NW,319,0.0,1.0,53,0.00,,,0.00,Wunderground v.1.15,2013-08-21 16:30:00,
2013-08-21 12:36:00,83.3,64.4,30.22,NNE,19,0.0,1.0,53,0.00,,,0.00,Wunderground v.1.15,2013-08-21 16:36:00,
2013-08-21 12:42:00,83.6,66.2,30.21,North,11,0.0,0.0,56,0.00,,,0.00,Wunderground v.1.15,2013-08-21 16:42:00,
2013-08-21 12:48:00,83.4,63.9,30.21,North,349,0.0,1.0,52,0.00,,,0.00,Wunderground v.1.15,2013-08-21 16:48:00,
2013-08-21 12:54:00,83.5,66.2,30.21,NE,56,1.0,2.0,56,0.00,,,0.00,Wunderground v.1.15,2013-08-21 16:54:00,
2013-08-21 13:00:00,83.6,65.2,30.21,WSW,239,1.0,1.0,54,0.00,,,0.00,Wunderground v.1.15,2013-08-21 17:00:00,
2013-08-21 13:06:00,83.4,65.5,30.20,NW,323,1.0,3.0,55,0.00,,,0.00,Wunderground v.1.15,2013-08-21 17:06:00,
2013-08-21 13:12:00,83.3,64.9,30.20,SE,130,1.0,1.0,54,0.00,,,0.00,Wunderground v.1.15,2013-08-21 17:12:00,
2013-08-21 13:18:00,84.1,67.2,30.20,ESE,105,0.0,1.0,57,0.00,,,0.00,Wunderground v.1.15,2013-08-21 17:18:00,
2013-08-21 13:24:00,84.2,65.8,30.20,ESE,106,0.0,0.0,54,0.00,,,0.00,Wunderground v.1.15,2013-08-21 17:24:00,
2013-08-21 13:30:00,85.1,68.2,30.20,ESE,106,0.0,0.0,57,0.00,,,0.00,Wunderground v.1.15,2013-08-21 17:30:00,
2013-08-21 13:36:00,84.6,62.7,30.19,WSW,238,1.0,1.0,48,0.00,,,0.00,Wunderground v.1.15,2013-08-21 17:36:00,
2013-08-21 13:42:00,83.9,62.7,30.19,WSW,255,1.0,2.0,49,0.00,,,0.00,Wunderground v.1.15,2013-08-21 17:42:00,
2013-08-21 13:48:00,84.3,64.8,30.19,NNE,32,0.0,2.0,52,0.00,,,0.00,Wunderground v.1.15,2013-08-21 17:48:00,
2013-08-21 13:54:00,84.6,64.5,30.19,ENE,76,0.0,2.0,51,0.00,,,0.00,Wunderground v.1.15,2013-08-21 17:54:00,
2013-08-21 14:00:00,84.8,65.2,30.19,SE,129,0.0,0.0,52,0.00,,,0.00,Wunderground v.1.15,2013-08-21 18:00:00,
2013-08-21 14:06:00,84.8,62.9,30.19,SW,222,0.0,3.0,48,0.00,,,0.00,Wunderground v.1.15,2013-08-21 18:06:00,
2013-08-21 14:12:00,84.7,66.7,30.19,ENE,76,0.0,0.0,55,0.00,,,0.00,Wunderground v.1.15,2013-08-21 18:12:00,
2013-08-21 14:18:00,84.2,63.0,30.18,WSW,243,1.0,1.0,49,0.00,,,0.00,Wunderground v.1.15,2013-08-21 18:18:00,
2013-08-21 14:24:00,84.7,64.0,30.18,WNW,288,1.0,1.0,50,0.00,,,0.00,Wunderground v.1.15,2013-08-21 18:24:00,
2013-08-21 14:30:00,85.1,64.4,30.18,NW,326,0.0,1.0,50,0.00,,,0.00,Wunderground v.1.15,2013-08-21 18:30:00,
2013-08-21 14:36:00,84.5,64.9,30.18,SSW,197,1.0,3.0,52,0.00,,,0.00,Wunderground v.1.15,2013-08-21 18:36:00,
2013-08-21 14:42:00,84.4,65.4,30.17,NNE,31,0.0,1.0,53,0.00,,,0.00,Wunderground v.1.15,2013-08-21 18:42:00,
2013-08-21 14:48:00,84.8,65.2,30.17,ESE,120,0.0,1.0,52,0.00,,,0.00,Wunderground v.1.15,2013-08-21 18:48:00,
2013-08-21 14:54:00,84.4,67.5,30.17,WSW,251,0.0,2.0,57,0.00,,,0.00,Wunderground v.1.15,2013-08-21 18:54:00,
2013-08-21 15:00:00,84.7,62.8,30.17,SW,233,1.0,2.0,48,0.00,,,0.00,Wunderground v.1.15,2013-08-21 19:00:00,
2013-08-21 15:06:00,85.2,65.0,30.17,WSW,240,0.0,4.0,51,0.00,,,0.00,Wunderground v.1.15,2013-08-21 19:06:00,
2013-08-21 15:12:00,85.1,66.6,30.17,ESE,103,0.0,1.0,54,0.00,,,0.00,Wunderground v.1.15,2013-08-21 19:12:00,
2013-08-21 15:18:00,84.8,65.8,30.17,WSW,244,1.0,1.0,53,0.00,,,0.00,Wunderground v.1.15,2013-08-21 19:18:00,
2013-08-21 15:24:00,84.8,62.9,30.17,WSW,238,1.0,1.0,48,0.00,,,0.00,Wunderground v.1.15,2013-08-21 19:24:00,
2013-08-21 15:30:00,84.5,62.7,30.16,WSW,258,1.0,1.0,48,0.00,,,0.00,Wunderground v.1.15,2013-08-21 19:30:00,
2013-08-21 15:36:00,84.5,65.5,30.16,SW,227,1.0,2.0,53,0.00,,,0.00,Wunderground v.1.15,2013-08-21 19:36:00,
2013-08-21 15:42:00,84.9,67.5,30.16,WSW,239,0.0,1.0,56,0.00,,,0.00,Wunderground v.1.15,2013-08-21 19:42:00,
2013-08-21 15:48:00,84.6,68.7,30.16,NW,323,1.0,1.0,59,0.00,,,0.00,Wunderground v.1.15,2013-08-21 19:48:00,
2013-08-21 15:54:00,85.1,66.6,30.16,SSW,205,1.0,1.0,54,0.00,,,0.00,Wunderground v.1.15,2013-08-21 19:54:00,
2013-08-21 16:00:00,85.1,66.6,30.16,ESE,112,0.0,0.0,54,0.00,,,0.00,Wunderground v.1.15,2013-08-21 20:00:00,
2013-08-21 16:06:00,84.7,68.8,30.16,WSW,245,0.0,3.0,59,0.00,,,0.00,Wunderground v.1.15,2013-08-21 20:06:00,
2013-08-21 16:12:00,84.8,65.2,30.15,ENE,64,0.0,1.0,52,0.00,,,0.00,Wunderground v.1.15,2013-08-21 20:12:00,
2013-08-21 16:18:00,84.9,65.9,30.15,SE,133,0.0,1.0,53,0.00,,,0.00,Wunderground v.1.15,2013-08-21 20:18:00,
2013-08-21 16:24:00,84.9,66.4,30.15,SW,226,0.0,1.0,54,0.00,,,0.00,Wunderground v.1.15,2013-08-21 20:24:00,
2013-08-21 16:30:00,84.7,66.2,30.15,East,96,0.0,0.0,54,0.00,,,0.00,Wunderground v.1.15,2013-08-21 20:30:00,
2013-08-21 16:36:00,83.9,66.0,30.15,SE,124,0.0,1.0,55,0.00,,,0.00,Wunderground v.1.15,2013-08-21 20:36:00,
2013-08-21 16:42:00,83.4,65.5,30.14,SSW,201,1.0,2.0,55,0.00,,,0.00,Wunderground v.1.15,2013-08-21 20:42:00,
2013-08-21 16:48:00,84.0,66.1,30.14,East,95,1.0,2.0,55,0.00,,,0.00,Wunderground v.1.15,2013-08-21 20:48:00,
2013-08-21 16:54:00,83.5,67.2,30.14,East,95,0.0,1.0,58,0.00,,,0.00,Wunderground v.1.15,2013-08-21 20:54:00,
2013-08-21 17:00:00,83.1,67.3,30.14,East,95,0.0,0.0,59,0.00,,,0.00,Wunderground v.1.15,2013-08-21 21:00:00,
2013-08-21 17:06:00,82.6,66.8,30.14,East,96,0.0,4.0,59,0.00,,,0.00,Wunderground v.1.15,2013-08-21 21:06:00,
2013-08-21 17:12:00,82.6,66.8,30.14,SW,226,0.0,1.0,59,0.00,,,0.00,Wunderground v.1.15,2013-08-21 21:12:00,
2013-08-21 17:18:00,82.6,67.8,30.14,SW,225,0.0,1.0,61,0.00,,,0.00,Wunderground v.1.15,2013-08-21 21:18:00,
2013-08-21 17:24:00,82.1,67.8,30.14,South,191,0.0,1.0,62,0.00,,,0.00,Wunderground v.1.15,2013-08-21 21:24:00,
2013-08-21 17:30:00,81.3,66.6,30.14,SE,143,0.0,0.0,61,0.00,,,0.00,Wunderground v.1.15,2013-08-21 21:30:00,
2013-08-21 17:36:00,80.7,66.0,30.14,SE,143,0.0,0.0,61,0.00,,,0.00,Wunderground v.1.15,2013-08-21 21:36:00,
2013-08-21 17:42:00,80.2,66.0,30.14,SE,143,0.0,1.0,62,0.00,,,0.00,Wunderground v.1.15,2013-08-21 21:42:00,
2013-08-21 17:48:00,79.8,66.1,30.13,SSE,151,1.0,1.0,63,0.00,,,0.00,Wunderground v.1.15,2013-08-21 21:48:00,
2013-08-21 17:54:00,79.2,66.4,30.13,SSE,151,1.0,1.0,65,0.00,,,0.00,Wunderground v.1.15,2013-08-21 21:54:00,
2013-08-21 18:00:00,78.7,68.9,30.13,SSE,151,1.0,1.0,72,0.00,,,0.00,Wunderground v.1.15,2013-08-21 22:00:00,
2013-08-21 18:06:00,78.3,69.3,30.13,SSE,151,0.0,3.0,74,0.00,,,0.00,Wunderground v.1.15,2013-08-21 22:06:00,
2013-08-21 18:12:00,77.6,69.0,30.12,SSE,151,0.0,0.0,75,0.00,,,0.00,Wunderground v.1.15,2013-08-21 22:12:00,
2013-08-21 18:18:00,77.0,68.5,30.12,SSE,148,0.0,1.0,75,0.00,,,0.00,Wunderground v.1.15,2013-08-21 22:18:00,
2013-08-21 18:24:00,76.4,67.9,30.12,SSE,148,0.0,1.0,75,0.00,,,0.00,Wunderground v.1.15,2013-08-21 22:24:00,
2013-08-21 18:30:00,76.0,67.5,30.12,SE,145,0.0,0.0,75,0.00,,,0.00,Wunderground v.1.15,2013-08-21 22:30:00,
2013-08-21 18:36:00,75.9,67.0,30.12,SE,145,0.0,1.0,74,0.00,,,0.00,Wunderground v.1.15,2013-08-21 22:36:00,
2013-08-21 18:42:00,76.0,67.5,30.11,SE,143,0.0,0.0,75,0.00,,,0.00,Wunderground v.1.15,2013-08-21 22:42:00,
2013-08-21 18:48:00,75.9,66.6,30.12,SE,144,0.0,1.0,73,0.00,,,0.00,Wunderground v.1.15,2013-08-21 22:48:00,
2013-08-21 18:54:00,75.7,66.8,30.12,SE,143,0.0,1.0,74,0.00,,,0.00,Wunderground v.1.15,2013-08-21 22:54:00,
2013-08-21 19:00:00,75.3,66.8,30.12,SE,129,1.0,1.0,75,0.00,,,0.00,Wunderground v.1.15,2013-08-21 23:00:00,
2013-08-21 19:06:00,75.0,66.5,30.12,ESE,122,1.0,1.0,75,0.00,,,0.00,Wunderground v.1.15,2013-08-21 23:06:00,
2013-08-21 19:12:00,74.5,66.1,30.12,ESE,122,1.0,1.0,75,0.00,,,0.00,Wunderground v.1.15,2013-08-21 23:12:00,
2013-08-21 19:18:00,74.1,65.7,30.12,ESE,120,1.0,1.0,75,0.00,,,0.00,Wunderground v.1.15,2013-08-21 23:18:00,
2013-08-21 19:24:00,73.7,65.3,30.12,SE,125,1.0,1.0,75,0.00,,,0.00,Wunderground v.1.15,2013-08-21 23:24:00,
2013-08-21 19:30:00,73.6,64.4,30.12,SE,130,1.0,1.0,73,0.00,,,0.00,Wunderground v.1.15,2013-08-21 23:30:00,
2013-08-21 19:36:00,73.5,64.7,30.12,ESE,122,1.0,1.0,74,0.00,,,0.00,Wunderground v.1.15,2013-08-21 23:36:00,
2013-08-21 19:42:00,73.4,64.6,30.12,SE,129,1.0,1.0,74,0.00,,,0.00,Wunderground v.1.15,2013-08-21 23:42:00,
2013-08-21 19:48:00,73.2,64.4,30.12,SE,129,1.0,2.0,74,0.00,,,0.00,Wunderground v.1.15,2013-08-21 23:48:00,
2013-08-21 19:54:00,72.9,64.1,30.12,East,89,1.0,1.0,74,0.00,,,0.00,Wunderground v.1.15,2013-08-21 23:54:00,
2013-08-21 20:00:00,73.0,63.8,30.11,ESE,105,1.0,1.0,73,0.00,,,0.00,Wunderground v.1.15,2013-08-22 00:00:00,
2013-08-21 20:06:00,72.9,64.1,30.12,ESE,105,1.0,1.0,74,0.00,,,0.00,Wunderground v.1.15,2013-08-22 00:06:00,
2013-08-21 20:12:00,72.9,64.1,30.12,SE,124,1.0,1.0,74,0.00,,,0.00,Wunderground v.1.15,2013-08-22 00:12:00,
2013-08-21 20:18:00,72.8,63.6,30.12,East,93,1.0,2.0,73,0.00,,,0.00,Wunderground v.1.15,2013-08-22 00:18:00,
2013-08-21 20:24:00,73.0,63.8,30.12,SE,131,1.0,2.0,73,0.00,,,0.00,Wunderground v.1.15,2013-08-22 00:24:00,
2013-08-21 20:30:00,72.8,63.6,30.12,ESE,118,1.0,1.0,73,0.00,,,0.00,Wunderground v.1.15,2013-08-22 00:30:00,
2013-08-21 20:36:00,72.5,63.4,30.12,ESE,119,1.0,1.0,73,0.00,,,0.00,Wunderground v.1.15,2013-08-22 00:36:00,
2013-08-21 20:42:00,72.4,62.5,30.12,ESE,103,1.0,1.0,71,0.00,,,0.00,Wunderground v.1.15,2013-08-22 00:42:00,
2013-08-21 20:48:00,72.6,62.7,30.12,SE,125,1.0,1.0,71,0.00,,,0.00,Wunderground v.1.15,2013-08-22 00:48:00,
2013-08-21 20:54:00,72.5,63.0,30.12,SE,125,1.0,1.0,72,0.00,,,0.00,Wunderground v.1.15,2013-08-22 00:54:00,
2013-08-21 21:00:00,72.3,62.8,30.12,SE,127,1.0,1.0,72,0.00,,,0.00,Wunderground v.1.15,2013-08-22 01:00:00,
2013-08-21 21:06:00,72.3,62.8,30.13,East,100,1.0,2.0,72,0.00,,,0.00,Wunderground v.1.15,2013-08-22 01:06:00,
2013-08-21 21:12:00,72.4,62.9,30.13,SE,130,1.0,1.0,72,0.00,,,0.00,Wunderground v.1.15,2013-08-22 01:12:00,
2013-08-21 21:18:00,72.2,62.7,30.13,SE,127,1.0,1.0,72,0.00,,,0.00,Wunderground v.1.15,2013-08-22 01:18:00,
2013-08-21 21:24:00,72.4,62.9,30.13,ESE,117,1.0,1.0,72,0.00,,,0.00,Wunderground v.1.15,2013-08-22 01:24:00,
2013-08-21 21:30:00,72.3,62.4,30.13,ESE,105,1.0,1.0,71,0.00,,,0.00,Wunderground v.1.15,2013-08-22 01:30:00,
2013-08-21 21:36:00,72.2,62.3,30.13,East,86,1.0,1.0,71,0.00,,,0.00,Wunderground v.1.15,2013-08-22 01:36:00,
2013-08-21 21:42:00,72.2,62.7,30.13,ESE,123,1.0,1.0,72,0.00,,,0.00,Wunderground v.1.15,2013-08-22 01:42:00,
2013-08-21 21:48:00,72.1,62.6,30.13,ESE,121,1.0,1.0,72,0.00,,,0.00,Wunderground v.1.15,2013-08-22 01:48:00,
2013-08-21 21:54:00,72.1,63.0,30.13,ESE,122,1.0,1.0,73,0.00,,,0.00,Wunderground v.1.15,2013-08-22 01:54:00,
2013-08-21 22:00:00,72.3,63.2,30.13,SE,127,1.0,1.0,73,0.00,,,0.00,Wunderground v.1.15,2013-08-22 02:00:00,
2013-08-21 22:06:00,72.6,63.1,30.13,ESE,110,1.0,2.0,72,0.00,,,0.00,Wunderground v.1.15,2013-08-22 02:06:00,
2013-08-21 22:12:00,72.6,63.1,30.13,ESE,114,1.0,1.0,72,0.00,,,0.00,Wunderground v.1.15,2013-08-22 02:12:00,
2013-08-21 22:18:00,72.4,63.3,30.13,ESE,113,1.0,1.0,73,0.00,,,0.00,Wunderground v.1.15,2013-08-22 02:18:00,
2013-08-21 22:24:00,72.4,63.3,30.13,SE,127,1.0,1.0,73,0.00,,,0.00,Wunderground v.1.15,2013-08-22 02:24:00,
2013-08-21 22:30:00,72.3,63.2,30.13,ESE,120,1.0,1.0,73,0.00,,,0.00,Wunderground v.1.15,2013-08-22 02:30:00,
2013-08-21 22:36:00,72.4,63.6,30.12,ESE,115,1.0,1.0,74,0.00,,,0.00,Wunderground v.1.15,2013-08-22 02:36:00,
2013-08-21 22:42:00,72.2,63.1,30.12,East,86,1.0,2.0,73,0.00,,,0.00,Wunderground v.1.15,2013-08-22 02:42:00,
2013-08-21 22:48:00,72.6,63.4,30.12,ESE,107,1.0,2.0,73,0.00,,,0.00,Wunderground v.1.15,2013-08-22 02:48:00,
2013-08-21 22:54:00,72.5,63.4,30.12,East,88,1.0,1.0,73,0.00,,,0.00,Wunderground v.1.15,2013-08-22 02:54:00,
2013-08-21 23:00:00,72.4,63.3,30.12,ESE,117,1.0,2.0,73,0.00,,,0.00,Wunderground v.1.15,2013-08-22 03:00:00,
2013-08-21 23:06:00,72.4,63.6,30.11,East,83,1.0,2.0,74,0.00,,,0.00,Wunderground v.1.15,2013-08-22 03:06:00,
2013-08-21 23:12:00,72.3,63.5,30.11,ESE,110,1.0,1.0,74,0.00,,,0.00,Wunderground v.1.15,2013-08-22 03:12:00,
2013-08-21 23:18:00,72.2,63.4,30.10,ESE,122,1.0,1.0,74,0.00,,,0.00,Wunderground v.1.15,2013-08-22 03:18:00,
2013-08-21 23:24:00,72.3,63.5,30.10,SE,136,1.0,2.0,74,0.00,,,0.00,Wunderground v.1.15,2013-08-22 03:24:00,
2013-08-21 23:30:00,72.5,63.7,30.10,ESE,113,1.0,1.0,74,0.00,,,0.00,Wunderground v.1.15,2013-08-22 03:30:00,
2013-08-21 23:36:00,72.6,63.4,30.10,ESE,113,1.0,1.0,73,0.00,,,0.00,Wunderground v.1.15,2013-08-22 03:36:00,
2013-08-21 23:42:00,72.4,63.6,30.10,ESE,122,1.0,1.0,74,0.00,,,0.00,Wunderground v.1.15,2013-08-22 03:42:00,
2013-08-21 23:48:00,72.0,63.6,30.10,ESE,123,1.0,1.0,75,0.00,,,0.00,Wunderground v.1.15,2013-08-22 03:48:00,
2013-08-21 23:54:00,72.1,63.7,30.10,ESE,102,1.0,1.0,75,0.00,,,0.00,Wunderground v.1.15,2013-08-22 03:54:00,